LiveATC.Net - Listen to live air traffic control over the Internet!


ICAO: ENSO  IATA: SRP   Airport: Stord Lufthavn Airport
City: Stord
Country: Norway   Continent: Europe
ENSO METAR Weather: ENSO 241750Z 32008KT 9999 2000E -SHRA FEW002 SCT005 BKN020 14/13 Q1012
ENSO Flight Activity (FlightAware)
ENSO Webcam: (Airport Webcams)
ENSO AFIS
Feed Status: DOWN
Last heard on: 2016-06-24 04:01:02 (2 days 5 hours 57 minutes ago)
ENSO AFIS Audio Archives
FacilityFrequency
Stord AFIS120.200

Feed sponsored by:

NOTICE

Unauthorized use prohibited. See LiveATC.net Terms of Service


Find LiveATC Audio Streams


Airport/ARTCC Code

Frequency
(e.g., 124.400, 128.75)
Site-wide search

Browse LiveATC Feeds
LiveATC Coverage Map
Top 50 LiveATC Feeds
Bad Weather Areas

LiveATC FAQ
Offer a LiveATC Feed
Contact LiveATC.net
Press Inquiries

LiveATC on iPhone
LiveATC on Android

Windows Phone
Windows 8/10

LiveATC Mobile
(Mobile browser)

ATC Audio Archives
Interesting Recordings

LiveATC Forums


Home Page
About LiveATC.net
Make a Donation
LiveATC Store

Terms of Use
Privacy Policy

Canadian Air Freqs

AIRMETs/SIGMETs

FAA Airport Status
Nat'l Airspace Status
Arrival Demand Charts


Server Software By:
Icecast.org
Liquidsoap